Location: Bruderhein
(53.8035°N, 112.9265°W)
Time: 14:26:55
(UTC+00:00)

deb Delta 139 - Pass Details

Date: 09 December 2023
Orbit: 731 x 794 km, 98.6° (Epoch: 01 March)

Event Time Altitude Azimuth Distance (km) Brightness Sun altitude
Rises 01:08:37 0° 158° (SSE) 3,249 ? -16.1°
Reaches altitude 10° 01:10:56 10° 157° (SSE) 2,316 ? -16.4°
Maximum altitude 01:16:02 80° 72° (ENE) 783 ? -17.1°
Drops below altitude 10° 01:21:05 10° 346° (NNW) 2,291 ? -17.8°
Sets 01:23:22 0° 345° (NNW) 3,210 ? -18.2°
